Location: El Escondido
(32.5691°N, 116.4250°W)
Time: 23:31:09
(UTC+00:00)

ISS - Pass Details

Date: 23 June 2024
Orbit: 409 x 423 km, 51.6° (Epoch: 23 July)

Event Time Altitude Azimuth Distance (km) Brightness Sun altitude
Exits shadow 11:00:57 37° 284° (WNW) 663 -3.1 -17.5°
Maximum altitude 11:01:39 43° 319° (NW) 594 -3.0 -17.4°
Drops below altitude 10° 11:04:51 10° 33° (NNE) 1,490 0.2 -16.9°
Sets 11:06:57 0° 40° (NE) 2,327 1.8 -16.6°
